Time,TemperatureF,DewpointF,PressureIn,WindDirection,WindDirectionDegrees,WindSpeedMPH,WindSpeedGustMPH,Humidity,HourlyPrecipIn,Conditions,Clouds,dailyrainin,SoftwareType,DateUTC
2013-04-17 00:03:00,58.0,57.0,30.23,South,172,0.0,0.0,97,0.00,,,0.00,,2013-04-17 04:03:00,
2013-04-17 00:13:00,58.0,57.0,30.23,South,172,0.0,0.0,97,0.00,,,0.00,,2013-04-17 04:13:00,
2013-04-17 00:22:00,58.0,57.0,30.24,South,172,0.0,0.0,97,0.00,,,0.00,,2013-04-17 04:22:00,
2013-04-17 00:33:00,58.0,57.0,30.24,South,172,0.0,0.0,98,0.00,,,0.00,,2013-04-17 04:33:00,
2013-04-17 00:42:00,58.0,57.0,30.24,South,172,0.0,0.0,98,0.00,,,0.00,,2013-04-17 04:42:00,
2013-04-17 00:52:00,58.0,57.0,30.24,South,172,0.0,0.0,98,0.00,,,0.00,,2013-04-17 04:52:00,
2013-04-17 01:02:00,57.0,56.0,30.24,South,172,0.0,0.0,98,0.00,,,0.00,,2013-04-17 05:02:00,
2013-04-17 01:12:00,57.0,56.0,30.24,South,172,0.0,0.0,98,0.00,,,0.00,,2013-04-17 05:12:00,
2013-04-17 01:22:00,57.0,56.0,30.24,South,172,0.0,0.0,98,0.00,,,0.00,,2013-04-17 05:22:00,
2013-04-17 01:32:00,57.0,56.0,30.24,South,172,0.0,0.0,98,0.00,,,0.00,,2013-04-17 05:32:00,
2013-04-17 01:42:00,57.0,56.0,30.24,South,172,0.0,0.0,98,0.00,,,0.00,,2013-04-17 05:42:00,
2013-04-17 01:52:00,57.0,56.0,30.24,South,172,0.0,0.0,98,0.00,,,0.00,,2013-04-17 05:52:00,
2013-04-17 02:02:00,56.0,55.0,30.23,South,172,0.0,0.0,98,0.00,,,0.00,,2013-04-17 06:02:00,
2013-04-17 02:12:00,56.0,55.0,30.23,South,172,0.0,0.0,98,0.00,,,0.00,,2013-04-17 06:12:00,
2013-04-17 02:22:00,56.0,56.0,30.23,South,172,0.0,0.0,99,0.00,,,0.00,,2013-04-17 06:22:00,
2013-04-17 02:32:00,56.0,55.0,30.23,South,172,0.0,0.0,98,0.00,,,0.00,,2013-04-17 06:32:00,
2013-04-17 02:42:00,56.0,55.0,30.23,South,172,0.0,0.0,98,0.00,,,0.00,,2013-04-17 06:42:00,
2013-04-17 02:52:00,56.0,56.0,30.22,South,172,0.0,0.0,99,0.00,,,0.00,,2013-04-17 06:52:00,
2013-04-17 03:02:00,56.0,56.0,30.22,South,172,0.0,0.0,99,0.00,,,0.00,,2013-04-17 07:02:00,
2013-04-17 03:12:00,56.0,56.0,30.22,South,172,0.0,0.0,99,0.00,,,0.00,,2013-04-17 07:12:00,
2013-04-17 03:22:00,55.0,55.0,30.22,South,172,0.0,0.0,99,0.00,,,0.00,,2013-04-17 07:22:00,
2013-04-17 03:32:00,55.0,55.0,30.22,South,172,0.0,0.0,99,0.00,,,0.00,,2013-04-17 07:32:00,
2013-04-17 03:42:00,55.0,55.0,30.22,South,172,0.0,0.0,99,0.00,,,0.00,,2013-04-17 07:42:00,
2013-04-17 03:52:00,55.0,55.0,30.22,South,172,0.0,0.0,99,0.00,,,0.00,,2013-04-17 07:52:00,
2013-04-17 04:02:00,55.0,55.0,30.22,South,172,0.0,0.0,99,0.00,,,0.00,,2013-04-17 08:02:00,
2013-04-17 04:12:00,55.0,55.0,30.22,South,172,0.0,0.0,99,0.00,,,0.00,,2013-04-17 08:12:00,
2013-04-17 04:22:00,54.0,54.0,30.22,South,172,0.0,0.0,99,0.00,,,0.00,,2013-04-17 08:22:00,
2013-04-17 04:32:00,54.0,54.0,30.21,South,172,0.0,0.0,99,0.00,,,0.00,,2013-04-17 08:32:00,
2013-04-17 04:42:00,54.0,54.0,30.21,South,172,0.0,0.0,99,0.00,,,0.00,,2013-04-17 08:42:00,
2013-04-17 04:52:00,54.0,54.0,30.21,South,172,0.0,0.0,99,0.00,,,0.00,,2013-04-17 08:52:00,
2013-04-17 05:02:00,54.0,54.0,30.20,South,172,0.0,0.0,99,0.00,,,0.00,,2013-04-17 09:02:00,
2013-04-17 05:12:00,54.0,54.0,30.20,South,172,0.0,0.0,99,0.00,,,0.00,,2013-04-17 09:12:00,
2013-04-17 05:22:00,54.0,54.0,30.20,South,172,0.0,0.0,99,0.00,,,0.00,,2013-04-17 09:22:00,
2013-04-17 05:33:00,53.0,53.0,30.20,South,172,0.0,0.0,99,0.00,,,0.00,,2013-04-17 09:33:00,
2013-04-17 05:42:00,53.0,53.0,30.20,South,172,0.0,0.0,99,0.00,,,0.00,,2013-04-17 09:42:00,
2013-04-17 05:53:00,53.0,53.0,30.20,South,172,0.0,0.0,99,0.00,,,0.00,,2013-04-17 09:53:00,
2013-04-17 06:03:00,53.0,53.0,30.20,South,172,0.0,0.0,100,0.00,,,0.00,,2013-04-17 10:03:00,
2013-04-17 06:12:00,53.0,53.0,30.20,South,172,0.0,0.0,100,0.00,,,0.00,,2013-04-17 10:12:00,
2013-04-17 06:23:00,53.0,53.0,30.21,South,172,0.0,0.0,99,0.00,,,0.00,,2013-04-17 10:23:00,
2013-04-17 06:32:00,53.0,53.0,30.21,South,172,0.0,0.0,99,0.00,,,0.00,,2013-04-17 10:32:00,
2013-04-17 06:42:00,53.0,53.0,30.21,South,172,0.0,0.0,99,0.00,,,0.00,,2013-04-17 10:42:00,
2013-04-17 06:53:00,53.0,53.0,30.22,South,172,0.0,0.0,99,0.00,,,0.00,,2013-04-17 10:53:00,
2013-04-17 07:02:00,53.0,53.0,30.22,South,172,0.0,0.0,100,0.00,,,0.00,,2013-04-17 11:02:00,
2013-04-17 07:12:00,53.0,53.0,30.22,South,172,0.0,0.0,100,0.00,,,0.00,,2013-04-17 11:12:00,
2013-04-17 07:22:00,53.0,53.0,30.23,South,172,0.0,0.0,100,0.00,,,0.00,,2013-04-17 11:22:00,
2013-04-17 07:32:00,54.0,54.0,30.24,South,172,0.0,0.0,100,0.00,,,0.00,,2013-04-17 11:32:00,
2013-04-17 07:42:00,54.0,54.0,30.24,South,172,0.0,0.0,100,0.00,,,0.00,,2013-04-17 11:42:00,
2013-04-17 07:52:00,57.0,57.0,30.25,South,170,0.0,0.0,100,0.00,,,0.00,,2013-04-17 11:52:00,
2013-04-17 08:02:00,58.0,58.0,30.25,South,170,0.0,0.0,100,0.00,,,0.00,,2013-04-17 12:02:00,
2013-04-17 08:12:00,58.0,58.0,30.25,South,170,0.0,0.0,100,0.00,,,0.00,,2013-04-17 12:12:00,
2013-04-17 08:22:00,62.0,62.0,30.25,South,170,0.0,0.0,100,0.00,,,0.00,,2013-04-17 12:22:00,
2013-04-17 08:32:00,65.0,65.0,30.25,South,170,0.0,0.0,100,0.00,,,0.00,,2013-04-17 12:32:00,
2013-04-17 08:42:00,65.0,65.0,30.25,South,170,0.0,0.0,100,0.00,,,0.00,,2013-04-17 12:42:00,
2013-04-17 08:52:00,67.0,65.0,30.24,SSE,162,0.0,1.0,92,0.00,,,0.00,,2013-04-17 12:52:00,
2013-04-17 09:02:00,69.0,64.0,30.24,SSE,162,0.0,1.0,85,0.00,,,0.00,,2013-04-17 13:02:00,
2013-04-17 09:12:00,69.0,64.0,30.24,SSE,162,0.0,1.0,85,0.00,,,0.00,,2013-04-17 13:12:00,
2013-04-17 09:22:00,71.0,64.0,30.24,SSE,162,0.0,1.0,79,0.00,,,0.00,,2013-04-17 13:22:00,
2013-04-17 09:32:00,75.0,65.0,30.25,SSE,162,0.0,1.0,71,0.00,,,0.00,,2013-04-17 13:32:00,
2013-04-17 09:42:00,75.0,65.0,30.25,SSE,162,0.0,1.0,71,0.00,,,0.00,,2013-04-17 13:42:00,
2013-04-17 09:52:00,74.0,64.0,30.24,West,269,0.0,2.0,72,0.00,,,0.00,,2013-04-17 13:52:00,
2013-04-17 10:02:00,74.0,65.0,30.24,NNW,330,1.0,2.0,73,0.00,,,0.00,,2013-04-17 14:02:00,
2013-04-17 10:12:00,74.0,65.0,30.24,NNW,330,1.0,2.0,73,0.00,,,0.00,,2013-04-17 14:12:00,
2013-04-17 10:22:00,75.0,65.0,30.23,West,264,1.0,3.0,70,0.00,,,0.00,,2013-04-17 14:22:00,
2013-04-17 10:32:00,75.0,64.0,30.23,WNW,288,1.0,3.0,68,0.00,,,0.00,,2013-04-17 14:32:00,
2013-04-17 10:42:00,76.0,65.0,30.23,NW,316,1.0,2.0,69,0.00,,,0.00,,2013-04-17 14:42:00,
2013-04-17 10:52:00,76.0,65.0,30.23,NW,316,1.0,2.0,69,0.00,,,0.00,,2013-04-17 14:52:00,
2013-04-17 11:02:00,76.0,64.0,30.23,NW,318,0.0,3.0,66,0.00,,,0.00,,2013-04-17 15:02:00,
2013-04-17 11:12:00,79.0,62.0,30.22,SSW,210,0.0,2.0,57,0.00,,,0.00,,2013-04-17 15:12:00,
2013-04-17 11:22:00,79.0,62.0,30.22,SSW,210,0.0,2.0,57,0.00,,,0.00,,2013-04-17 15:22:00,
2013-04-17 11:33:00,78.0,63.0,30.22,SE,129,1.0,3.0,61,0.00,,,0.00,,2013-04-17 15:33:00,
2013-04-17 11:43:00,78.0,63.0,30.22,SE,129,1.0,3.0,61,0.00,,,0.00,,2013-04-17 15:43:00,
2013-04-17 11:53:00,79.0,66.0,30.22,ENE,64,1.0,3.0,65,0.00,,,0.00,,2013-04-17 15:53:00,
2013-04-17 12:03:00,78.0,66.0,30.22,SE,141,0.0,3.0,66,0.00,,,0.00,,2013-04-17 16:03:00,
2013-04-17 12:12:00,79.0,66.0,30.22,NE,44,2.0,3.0,65,0.00,,,0.00,,2013-04-17 16:12:00,
2013-04-17 12:23:00,79.0,66.0,30.22,NE,44,2.0,3.0,65,0.00,,,0.00,,2013-04-17 16:23:00,
2013-04-17 12:32:00,80.0,66.0,30.22,SSE,165,3.0,5.0,62,0.00,,,0.00,,2013-04-17 16:32:00,
2013-04-17 12:42:00,80.0,66.0,30.22,SSE,165,3.0,5.0,62,0.00,,,0.00,,2013-04-17 16:42:00,
2013-04-17 12:52:00,80.0,66.0,30.22,ENE,73,1.0,7.0,63,0.00,,,0.00,,2013-04-17 16:52:00,
2013-04-17 13:02:00,79.0,66.0,30.21,ESE,108,3.0,7.0,65,0.00,,,0.00,,2013-04-17 17:02:00,
2013-04-17 13:12:00,79.0,66.0,30.21,ESE,108,3.0,7.0,65,0.00,,,0.00,,2013-04-17 17:12:00,
2013-04-17 13:22:00,78.0,66.0,30.21,WSW,251,2.0,5.0,66,0.00,,,0.00,,2013-04-17 17:22:00,
2013-04-17 13:33:00,78.0,65.0,30.20,NE,45,2.0,5.0,65,0.00,,,0.00,,2013-04-17 17:33:00,
2013-04-17 13:42:00,78.0,65.0,30.20,NE,45,2.0,5.0,65,0.00,,,0.00,,2013-04-17 17:42:00,
2013-04-17 13:52:00,78.0,65.0,30.20,SE,136,1.0,6.0,65,0.00,,,0.00,,2013-04-17 17:52:00,
2013-04-17 14:02:00,79.0,67.0,30.20,SSE,148,1.0,6.0,66,0.00,,,0.00,,2013-04-17 18:02:00,
2013-04-17 14:12:00,79.0,67.0,30.20,SSE,148,1.0,6.0,66,0.00,,,0.00,,2013-04-17 18:12:00,
2013-04-17 14:22:00,79.0,65.0,30.19,ESE,121,4.0,5.0,62,0.00,,,0.00,,2013-04-17 18:22:00,
2013-04-17 14:32:00,78.0,65.0,30.19,East,84,3.0,7.0,64,0.00,,,0.00,,2013-04-17 18:32:00,
2013-04-17 14:42:00,78.0,65.0,30.19,East,84,3.0,7.0,64,0.00,,,0.00,,2013-04-17 18:42:00,
2013-04-17 14:52:00,77.0,65.0,30.19,ENE,65,2.0,6.0,66,0.00,,,0.00,,2013-04-17 18:52:00,
2013-04-17 15:02:00,76.0,65.0,30.19,NE,50,2.0,6.0,68,0.00,,,0.00,,2013-04-17 19:02:00,
2013-04-17 15:12:00,76.0,65.0,30.19,NE,50,2.0,6.0,68,0.00,,,0.00,,2013-04-17 19:12:00,
2013-04-17 15:22:00,77.0,64.0,30.18,NE,53,3.0,5.0,65,0.00,,,0.00,,2013-04-17 19:22:00,
2013-04-17 15:32:00,79.0,67.0,30.18,ENE,70,1.0,4.0,67,0.00,,,0.00,,2013-04-17 19:32:00,
2013-04-17 15:42:00,78.0,64.0,30.17,SE,127,3.0,6.0,63,0.00,,,0.00,,2013-04-17 19:42:00,
2013-04-17 15:52:00,78.0,64.0,30.17,SE,127,3.0,6.0,63,0.00,,,0.00,,2013-04-17 19:52:00,
2013-04-17 16:02:00,77.0,64.0,30.16,SE,143,2.0,9.0,65,0.00,,,0.00,,2013-04-17 20:02:00,
2013-04-17 16:12:00,77.0,64.0,30.16,SE,143,2.0,9.0,65,0.00,,,0.00,,2013-04-17 20:12:00,
2013-04-17 16:22:00,77.0,65.0,30.17,NE,42,2.0,6.0,66,0.00,,,0.00,,2013-04-17 20:22:00,
2013-04-17 16:32:00,77.0,64.0,30.17,SE,139,3.0,7.0,64,0.00,,,0.00,,2013-04-17 20:32:00,
2013-04-17 16:42:00,77.0,64.0,30.17,SE,139,3.0,7.0,64,0.00,,,0.00,,2013-04-17 20:42:00,
2013-04-17 16:52:00,77.0,64.0,30.17,NNE,13,3.0,6.0,64,0.00,,,0.00,,2013-04-17 20:52:00,
2013-04-17 17:03:00,76.0,62.0,30.16,WSW,247,4.0,8.0,63,0.00,,,0.00,,2013-04-17 21:03:00,
2013-04-17 17:12:00,76.0,62.0,30.16,WSW,247,4.0,8.0,63,0.00,,,0.00,,2013-04-17 21:12:00,
2013-04-17 17:22:00,76.0,62.0,30.16,East,85,3.0,6.0,62,0.00,,,0.00,,2013-04-17 21:22:00,
2013-04-17 17:33:00,76.0,62.0,30.16,SW,215,2.0,8.0,63,0.00,,,0.00,,2013-04-17 21:33:00,
2013-04-17 17:42:00,75.0,62.0,30.16,ENE,59,2.0,7.0,64,0.00,,,0.00,,2013-04-17 21:42:00,
2013-04-17 17:53:00,75.0,62.0,30.16,ENE,59,2.0,7.0,64,0.00,,,0.00,,2013-04-17 21:53:00,
2013-04-17 18:02:00,75.0,61.0,30.16,SE,139,3.0,5.0,62,0.00,,,0.00,,2013-04-17 22:02:00,
2013-04-17 18:12:00,75.0,61.0,30.16,SE,139,3.0,5.0,62,0.00,,,0.00,,2013-04-17 22:12:00,
2013-04-17 18:22:00,74.0,62.0,30.17,ENE,59,2.0,5.0,67,0.00,,,0.00,,2013-04-17 22:22:00,
2013-04-17 18:33:00,74.0,63.0,30.16,ESE,121,2.0,6.0,68,0.00,,,0.00,,2013-04-17 22:33:00,
2013-04-17 18:42:00,74.0,64.0,30.16,ENE,58,1.0,8.0,70,0.00,,,0.00,,2013-04-17 22:42:00,
2013-04-17 18:53:00,74.0,64.0,30.16,ENE,58,1.0,8.0,70,0.00,,,0.00,,2013-04-17 22:53:00,
2013-04-17 19:02:00,73.0,63.0,30.16,NNE,20,2.0,3.0,70,0.00,,,0.00,,2013-04-17 23:02:00,
2013-04-17 19:12:00,71.0,62.0,30.17,SE,134,1.0,5.0,74,0.00,,,0.00,,2013-04-17 23:12:00,
2013-04-17 19:22:00,71.0,62.0,30.17,SE,134,1.0,5.0,74,0.00,,,0.00,,2013-04-17 23:22:00,
2013-04-17 19:32:00,71.0,63.0,30.17,SSE,159,1.0,3.0,75,0.00,,,0.00,,2013-04-17 23:32:00,
2013-04-17 19:42:00,69.0,62.0,30.18,SSE,150,0.0,1.0,79,0.00,,,0.00,,2013-04-17 23:42:00,
2013-04-17 19:52:00,69.0,62.0,30.18,SSE,150,0.0,1.0,79,0.00,,,0.00,,2013-04-17 23:52:00,
2013-04-17 20:02:00,68.0,62.0,30.18,SSE,148,0.0,0.0,82,0.00,,,0.00,,2013-04-18 00:02:00,
2013-04-17 20:12:00,67.0,62.0,30.18,SSE,150,0.0,0.0,85,0.00,,,0.00,,2013-04-18 00:12:00,
2013-04-17 20:22:00,67.0,62.0,30.18,SSE,150,0.0,0.0,85,0.00,,,0.00,,2013-04-18 00:22:00,
2013-04-17 20:32:00,66.0,62.0,30.18,SSE,149,0.0,0.0,86,0.00,,,0.00,,2013-04-18 00:32:00,
2013-04-17 20:42:00,65.0,61.0,30.18,ESE,121,0.0,0.0,87,0.00,,,0.00,,2013-04-18 00:42:00,
2013-04-17 20:52:00,65.0,61.0,30.18,ESE,121,0.0,0.0,87,0.00,,,0.00,,2013-04-18 00:52:00,
2013-04-17 21:02:00,65.0,62.0,30.18,ESE,121,0.0,0.0,89,0.00,,,0.00,,2013-04-18 01:02:00,
2013-04-17 21:12:00,63.0,60.0,30.19,ESE,121,0.0,0.0,91,0.00,,,0.00,,2013-04-18 01:12:00,
2013-04-17 21:22:00,63.0,60.0,30.19,ESE,121,0.0,0.0,91,0.00,,,0.00,,2013-04-18 01:22:00,
2013-04-17 21:32:00,63.0,60.0,30.19,ESE,121,0.0,0.0,91,0.00,,,0.00,,2013-04-18 01:32:00,
2013-04-17 21:42:00,62.0,60.0,30.20,ESE,121,0.0,0.0,93,0.00,,,0.00,,2013-04-18 01:42:00,
2013-04-17 21:52:00,62.0,60.0,30.20,ESE,121,0.0,0.0,93,0.00,,,0.00,,2013-04-18 01:52:00,
2013-04-17 22:02:00,62.0,60.0,30.20,ESE,120,0.0,0.0,94,0.00,,,0.00,,2013-04-18 02:02:00,
2013-04-17 22:12:00,61.0,60.0,30.20,ESE,121,0.0,0.0,95,0.00,,,0.00,,2013-04-18 02:12:00,
2013-04-17 22:22:00,61.0,60.0,30.20,ESE,121,0.0,0.0,95,0.00,,,0.00,,2013-04-18 02:22:00,
2013-04-17 22:32:00,61.0,60.0,30.20,ESE,121,0.0,0.0,95,0.00,,,0.00,,2013-04-18 02:32:00,
2013-04-17 22:42:00,61.0,60.0,30.20,ESE,121,0.0,0.0,95,0.00,,,0.00,,2013-04-18 02:42:00,
2013-04-17 22:52:00,61.0,60.0,30.20,ESE,121,0.0,0.0,95,0.00,,,0.00,,2013-04-18 02:52:00,
2013-04-17 23:02:00,60.0,59.0,30.20,ESE,121,0.0,0.0,96,0.00,,,0.00,,2013-04-18 03:02:00,
2013-04-17 23:12:00,60.0,59.0,30.20,ESE,121,0.0,0.0,96,0.00,,,0.00,,2013-04-18 03:12:00,
2013-04-17 23:22:00,60.0,59.0,30.20,ESE,121,0.0,0.0,96,0.00,,,0.00,,2013-04-18 03:22:00,
2013-04-17 23:33:00,60.0,59.0,30.19,ESE,121,0.0,0.0,97,0.00,,,0.00,,2013-04-18 03:33:00,
2013-04-17 23:43:00,59.0,58.0,30.19,ESE,121,0.0,0.0,97,0.00,,,0.00,,2013-04-18 03:43:00,
2013-04-17 23:53:00,59.0,58.0,30.19,ESE,121,0.0,0.0,97,0.00,,,0.00,,2013-04-18 03:53:00,